FENGYUN 1C DEB, 31272

Orbit data source: Space-Track

FENGYUN 1C DEB, 31272 is space debris in SSO originally from a launch on Mon, 10 May 1999 UTC launched from the Taiyaun Space Center, China (TSC). Fengyun 1C debris stems from the Chinese weather satellite Fengyun-1C, which was intentionally destroyed by a Chinese anti-satellite missile in 2007. This event dramatically increased the amount of space debris, with thousands of trackable fragments posing hazards to satellites and human spaceflight. The Fengyun 1C debris cloud has become a focal point in discussions about space sustainability and the need for international regulations to prevent the creation of new debris.

Loading next visibility...
Identifier
31272, 1999-025BNE
Orbit
SSO
Country
Flag of CNCN / PRC
Related business
Manufacturer
Unknown
Mission
Spacecraft
Bus & Motor
Unknown
Mass
Unknown
Launch date (UTC)
1999-05-10 (27 years ago)
Launch vehicle
Unknown
Launch site
Taiyaun Space Center, China (TSC)
Object type
Payload
Rocket body
Debris
Shape & HBR
Unknown shape, 0.1 m
Radar Cross Section
Medium (>0.1 m² and <1 m²)

Expand to show TLE details & history
Last TLE update: 23 hours ago

TLE from 23 hours ago
0 FENGYUN 1C DEB
1 31272U 99025BNE 26228.14319861  .00000497  00000-0  22547-3 0  9996
2 31272  99.0628 112.6701 0106263 126.7317 234.3677 14.23445133  4853
Epoch: 2026-08-16T03:26Z
TLE epoch observation values (Epoch: 2026-08-16T03:26:12.359Z)
Latitude
-0°
Longitude
96.57465°
Altitude
861.697 km
Speed
7.398 km/s
True Right ascension
07h 30m 40s
True Declination
0° 00' 00"
Sunlit
Object was in daylight at epoch
Visualization orbit readout
Latitude
Unknown
Longitude
Unknown
Altitude
Unknown
Speed
Unknown
Apparent Right ascension
Unknown
Apparent Declination
Unknown
Sunlit
N/A
Visualization observer readout
Local Sidereal Time
16:41:35
Azimuth
Unknown
Elevation
Unknown
Doppler factor
Unknown
Orbital elements
Apogee altitude
887.289 km
Perigee altitude
734.503 km
Semi-major axis
7,189.033 km
Eccentricity
0.01063
Inclination
99.0628°
RAAN
112.6701°
Arg. of periapsis
126.7317°
True anomaly
233.38565°
Mean anomaly
234.3677°
Eccentric anomaly
233.87591°
Mean motion
3.56072 °/min
Orbital period
101.1 mins
BSTAR
0.00022547
Loading maneuver chart data...
Computing Atmospheric mass density...
Loading historical data...
Loading historical data...
Loading historical data...
Loading historical data...
Loading historical data...
Loading historical data...
Loading historical data...

Documentation

Showing up to 5 results
|